| time (UTC) | temp C | wind direction | speed KPH | gust KPH | rain 1hr cm | rain 24hr cm | rain mn cm | humidity % | barometer mb |
| 20260508165154 | 20 | 215 | 3.2 | 3.2 | 0.00 | 0.00 | 0.00 | 45 | 1019.4 |
| 20260508164651 | 19 | 166 | 4.8 | 4.8 | 0.00 | 0.00 | 0.00 | 46 | 1019.6 |
| 20260508164147 | 19 | 195 | 4.8 | 8.0 | 0.00 | 0.00 | 0.00 | 47 | 1019.5 |
| 20260508163645 | 20 | 253 | 1.6 | 3.2 | 0.00 | 0.00 | 0.00 | 47 | 1019.4 |
| 20260508163143 | 19 | 354 | 3.2 | 3.2 | 0.00 | 0.00 | 0.00 | 45 | 1019.3 |
| 20260508162637 | 20 | 257 | 3.2 | 3.2 | 0.00 | 0.00 | 0.00 | 48 | 1019.7 |
| 20260508162135 | 19 | 276 | 1.6 | 1.6 | 0.00 | 0.00 | 0.00 | 43 | 1019.6 |
| 20260508161632 | 18 | 238 | 1.6 | 1.6 | 0.00 | 0.00 | 0.00 | 47 | 1019.7 |
| 20260508161129 | 20 | 180 | 1.6 | 1.6 | 0.00 | 0.00 | 0.00 | 47 | 1019.9 |
| 20260508160628 | 20 | 171 | 3.2 | 4.8 | 0.00 | 0.00 | 0.00 | 48 | 1020.1 |
| 20260508160125 | 20 | 191 | 3.2 | 3.2 | 0.00 | 0.00 | 0.00 | 46 | 1020.2 |
| 20260508155622 | 20 | 256 | 0.0 | 1.6 | 0.00 | 0.00 | 0.00 | 52 | 1020.4 |
| 20260508155119 | 19 | 212 | 3.2 | 3.2 | 0.00 | 0.00 | 0.00 | 50 | 1020.3 |
| 20260508154615 | 18 | 152 | 3.2 | 3.2 | 0.00 | 0.00 | 0.00 | 50 | 1019.9 |
| 20260508154113 | 18 | 210 | 1.6 | 3.2 | 0.00 | 0.00 | 0.00 | 58 | 1020.2 |
| 20260508153609 | 18 | 171 | 1.6 | 4.8 | 0.00 | 0.00 | 0.00 | 50 | 1020.1 |
| 20260508153105 | 20 | 228 | 1.6 | 1.6 | 0.00 | 0.00 | 0.00 | 48 | 1020.4 |
| 20260508152603 | 19 | 195 | 0.0 | 0.0 | 0.00 | 0.00 | 0.00 | 55 | 1020.1 |
| 20260508152058 | 18 | 248 | 0.0 | 0.0 | 0.00 | 0.00 | 0.00 | 55 | 1020.0 |
| 20260508151555 | 18 | 232 | 1.6 | 1.6 | 0.00 | 0.00 | 0.00 | 52 | 1020.2 |
| 20260508151052 | 18 | 165 | 3.2 | 3.2 | 0.00 | 0.00 | 0.00 | 56 | 1020.4 |
| 20260508150549 | 18 | 252 | 0.0 | 1.6 | 0.00 | 0.00 | 0.00 | 55 | 1020.2 |
| 20260508150045 | 18 | 241 | 0.0 | 0.0 | 0.00 | 0.00 | 0.00 | 53 | 1020.6 |
| 20260508145542 | 17 | 226 | 1.6 | 1.6 | 0.00 | 0.00 | 0.00 | 53 | 1020.6 |
| 20260508145038 | 17 | 242 | 0.0 | 0.0 | 0.00 | 0.00 | 0.00 | 54 | 1020.3 |
| 20260508144536 | 18 | 253 | 1.6 | 3.2 | 0.00 | 0.00 | 0.00 | 56 | 1020.5 |
| 20260508144033 | 17 | 220 | 0.0 | 1.6 | 0.00 | 0.00 | 0.00 | 52 | 1020.4 |
| 20260508143531 | 17 | 241 | 0.0 | 0.0 | 0.00 | 0.00 | 0.00 | 52 | 1020.7 |
| 20260508143027 | 18 | 266 | 1.6 | 1.6 | 0.00 | 0.00 | 0.00 | 50 | 1020.4 |
| 20260508142524 | 17 | 279 | 1.6 | 1.6 | 0.00 | 0.00 | 0.00 | 57 | 1020.6 |
| 20260508142021 | 17 | 255 | 1.6 | 1.6 | 0.00 | 0.00 | 0.00 | 55 | 1020.4 |
| 20260508141517 | 17 | 182 | 3.2 | 3.2 | 0.00 | 0.00 | 0.00 | 60 | 1020.7 |
| 20260508141015 | 18 | 167 | 3.2 | 4.8 | 0.00 | 0.00 | 0.00 | 50 | 1020.4 |
| 20260508140512 | 18 | 241 | 0.0 | 1.6 | 0.00 | 0.00 | 0.00 | 53 | 1020.7 |
| 20260508140008 | 17 | 11 | 0.0 | 1.6 | 0.00 | 0.00 | 0.00 | 54 | 1020.8 |
| 20260508135503 | 17 | 192 | 1.6 | 1.6 | 0.00 | 0.00 | 0.00 | 54 | 1020.3 |
| 20260508134954 | 17 | 252 | 0.0 | 0.0 | 0.00 | 0.00 | 0.00 | 57 | 1020.6 |
| 20260508134451 | 17 | 239 | 0.0 | 0.0 | 0.00 | 0.00 | 0.00 | 53 | 1020.4 |
| 20260508133948 | 17 | 306 | 1.6 | 1.6 | 0.00 | 0.00 | 0.00 | 56 | 1020.6 |
| 20260508133446 | 16 | 256 | 0.0 | 1.6 | 0.00 | 0.00 | 0.00 | 56 | 1020.7 |
| 20260508132942 | 16 | 243 | 0.0 | 0.0 | 0.00 | 0.00 | 0.00 | 63 | 1020.5 |
| 20260508132440 | 16 | 244 | 1.6 | 1.6 | 0.00 | 0.00 | 0.00 | 65 | 1020.6 |
| 20260508131936 | 16 | 262 | 0.0 | 0.0 | 0.00 | 0.00 | 0.00 | 70 | 1020.4 |
| 20260508131432 | 15 | 254 | 0.0 | 0.0 | 0.00 | 0.00 | 0.00 | 63 | 1020.3 |
| 20260508130929 | 15 | 342 | 3.2 | 3.2 | 0.00 | 0.00 | 0.00 | 68 | 1020.5 |
| 20260508130426 | 13 | 232 | 0.0 | 0.0 | 0.00 | 0.00 | 0.00 | 72 | 1020.2 |
| 20260508125922 | 13 | 341 | 1.6 | 1.6 | 0.00 | 0.00 | 0.00 | 74 | 1020.3 |
| 20260508125418 | 13 | 237 | 1.6 | 1.6 | 0.00 | 0.00 | 0.00 | 81 | 1020.4 |
| 20260508124916 | 13 | 263 | 0.0 | 0.0 | 0.00 | 0.00 | 0.00 | 84 | 1020.3 |
| 20260508124414 | 12 | 262 | 0.0 | 0.0 | 0.00 | 0.00 | 0.00 | 84 | 1020.2 |
| 20260508123911 | 12 | 262 | 0.0 | 0.0 | 0.00 | 0.00 | 0.00 | 85 | 1020.3 |
| 20260508123410 | 12 | 263 | 0.0 | 1.6 | 0.00 | 0.00 | 0.00 | 86 | 1020.2 |
| 20260508122905 | 11 | 263 | 0.0 | 0.0 | 0.00 | 0.00 | 0.00 | 86 | 1020.1 |
| 20260508122403 | 11 | 339 | 0.0 | 1.6 | 0.00 | 0.00 | 0.00 | 87 | 1019.9 |
| 20260508121900 | 11 | 251 | 0.0 | 0.0 | 0.00 | 0.00 | 0.00 | 89 | 1020.3 |
| 20260508121358 | 11 | 252 | 0.0 | 0.0 | 0.00 | 0.00 | 0.00 | 89 | 1020.1 |
| 20260508120855 | 10 | 251 | 0.0 | 0.0 | 0.00 | 0.00 | 0.00 | 92 | 1020.0 |
| 20260508120353 | 10 | 252 | 0.0 | 0.0 | 0.00 | 0.00 | 0.00 | 93 | 1020.0 |
| 20260508115850 | 10 | 252 | 0.0 | 0.0 | 0.00 | 0.00 | 0.00 | 96 | 1019.8 |
| 20260508115347 | 9 | 255 | 0.0 | 0.0 | 0.00 | 0.00 | 0.00 | 96 | 1019.8 |
| 20260508114844 | 9 | 253 | 0.0 | 0.0 | 0.00 | 0.00 | 0.00 | 98 | 1019.7 |
| 20260508114341 | 8 | 252 | 0.0 | 0.0 | 0.00 | 0.00 | 0.00 | 98 | 1019.6 |
| 20260508113838 | 8 | 252 | 0.0 | 0.0 | 0.00 | 0.00 | 0.00 | 99 | 1019.5 |
| 20260508113336 | 8 | 253 | 0.0 | 0.0 | 0.00 | 0.00 | 0.00 | 99 | 1019.3 |
| 20260508112832 | 8 | 255 | 0.0 | 0.0 | 0.00 | 0.00 | 0.00 | 99 | 1019.4 |
| 20260508112329 | 8 | 252 | 0.0 | 0.0 | 0.00 | 0.00 | 0.00 | 99 | 1019.2 |
| 20260508111826 | 8 | 257 | 0.0 | 0.0 | 0.00 | 0.00 | 0.00 | 99 | 1019.1 |
| 20260508111323 | 7 | 261 | 0.0 | 0.0 | 0.00 | 0.00 | 0.00 | 99 | 1019.2 |
| 20260508110820 | 7 | 259 | 0.0 | 0.0 | 0.00 | 0.00 | 0.00 | 99 | 1019.1 |
| 20260508110318 | 7 | 259 | 0.0 | 0.0 | 0.00 | 0.00 | 0.00 | 99 | 1019.0 |
| 20260508105817 | 7 | 260 | 0.0 | 0.0 | 0.00 | 0.00 | 0.00 | 99 | 1018.8 |
| 20260508105314 | 7 | 263 | 0.0 | 0.0 | 0.00 | 0.00 | 0.00 | 99 | 1018.8 |
| 20260508104811 | 7 | 261 | 0.0 | 0.0 | 0.00 | 0.00 | 0.00 | 99 | 1018.9 |
| 20260508104308 | 7 | 261 | 0.0 | 0.0 | 0.00 | 0.00 | 0.00 | 99 | 1018.5 |
| 20260508103805 | 7 | 252 | 0.0 | 0.0 | 0.00 | 0.00 | 0.00 | 99 | 1018.5 |
| 20260508103302 | 7 | 252 | 0.0 | 0.0 | 0.00 | 0.00 | 0.00 | 99 | 1018.4 |
| 20260508102800 | 7 | 251 | 0.0 | 0.0 | 0.00 | 0.00 | 0.00 | 99 | 1018.4 |
| 20260508102258 | 7 | 258 | 0.0 | 0.0 | 0.00 | 0.00 | 0.00 | 99 | 1018.1 |
| 20260508101754 | 7 | 260 | 0.0 | 0.0 | 0.00 | 0.00 | 0.00 | 99 | 1018.2 |
| 20260508101252 | 7 | 255 | 0.0 | 0.0 | 0.00 | 0.00 | 0.00 | 99 | 1017.9 |
| 20260508100749 | 7 | 253 | 0.0 | 0.0 | 0.00 | 0.00 | 0.00 | 99 | 1017.7 |
| 20260508100248 | 7 | 253 | 0.0 | 0.0 | 0.00 | 0.00 | 0.00 | 99 | 1017.8 |
| 20260508095743 | 7 | 255 | 0.0 | 0.0 | 0.00 | 0.00 | 0.00 | 99 | 1017.9 |
| 20260508095241 | 8 | 254 | 0.0 | 0.0 | 0.00 | 0.00 | 0.00 | 99 | 1017.8 |
| 20260508094738 | 7 | 254 | 0.0 | 0.0 | 0.00 | 0.00 | 0.00 | 99 | 1017.8 |
| 20260508094235 | 8 | 253 | 0.0 | 0.0 | 0.00 | 0.00 | 0.00 | 99 | 1017.8 |
| 20260508093732 | 8 | 254 | 0.0 | 0.0 | 0.00 | 0.00 | 0.00 | 99 | 1017.9 |
| 20260508093229 | 8 | 256 | 0.0 | 0.0 | 0.00 | 0.00 | 0.00 | 99 | 1017.5 |
| 20260508092726 | 8 | 255 | 0.0 | 0.0 | 0.00 | 0.00 | 0.00 | 99 | 1017.7 |
| 20260508092224 | 8 | 257 | 0.0 | 0.0 | 0.00 | 0.00 | 0.00 | 99 | 1017.8 |
| 20260508091722 | 8 | 253 | 0.0 | 0.0 | 0.00 | 0.00 | 0.00 | 99 | 1017.9 |
| 20260508091218 | 8 | 255 | 0.0 | 0.0 | 0.00 | 0.00 | 0.00 | 99 | 1017.8 |
| 20260508090717 | 8 | 256 | 0.0 | 0.0 | 0.00 | 0.00 | 0.00 | 99 | 1017.8 |
| 20260508090214 | 8 | 253 | 0.0 | 0.0 | 0.00 | 0.00 | 0.00 | 99 | 1017.7 |
| 20260508085710 | 8 | 253 | 0.0 | 0.0 | 0.00 | 0.00 | 0.00 | 99 | 1017.6 |
| 20260508085207 | 8 | 254 | 0.0 | 0.0 | 0.00 | 0.00 | 0.00 | 99 | 1017.3 |
| 20260508084703 | 8 | 264 | 0.0 | 0.0 | 0.00 | 0.00 | 0.00 | 99 | 1017.3 |
| 20260508084201 | 8 | 254 | 0.0 | 0.0 | 0.00 | 0.00 | 0.00 | 99 | 1017.5 |
| 20260508083658 | 8 | 254 | 0.0 | 0.0 | 0.00 | 0.00 | 0.00 | 99 | 1017.6 |
| 20260508083155 | 8 | 253 | 0.0 | 0.0 | 0.00 | 0.00 | 0.00 | 99 | 1017.6 |
| 20260508082650 | 8 | 254 | 0.0 | 0.0 | 0.00 | 0.00 | 0.00 | 99 | 1017.3 |
| 20260508082148 | 8 | 251 | 0.0 | 0.0 | 0.00 | 0.00 | 0.00 | 99 | 1017.3 |
| 20260508081645 | 8 | 252 | 0.0 | 0.0 | 0.00 | 0.00 | 0.00 | 99 | 1017.4 |
| 20260508081142 | 8 | 257 | 0.0 | 0.0 | 0.00 | 0.00 | 0.00 | 99 | 1017.4 |
| 20260508080639 | 8 | 253 | 0.0 | 0.0 | 0.00 | 0.00 | 0.00 | 99 | 1017.1 |
| 20260508080137 | 8 | 253 | 0.0 | 0.0 | 0.00 | 0.00 | 0.00 | 99 | 1017.3 |
| 20260508075633 | 8 | 253 | 0.0 | 0.0 | 0.00 | 0.00 | 0.00 | 99 | 1017.4 |
| 20260508075130 | 8 | 253 | 0.0 | 0.0 | 0.00 | 0.00 | 0.00 | 99 | 1017.1 |
| 20260508074628 | 8 | 253 | 0.0 | 0.0 | 0.00 | 0.00 | 0.00 | 99 | 1017.2 |
| 20260508074125 | 8 | 253 | 0.0 | 0.0 | 0.00 | 0.00 | 0.00 | 99 | 1017.2 |
| 20260508073622 | 8 | 253 | 0.0 | 0.0 | 0.00 | 0.00 | 0.00 | 99 | 1017.3 |
| 20260508073120 | 8 | 254 | 0.0 | 0.0 | 0.00 | 0.00 | 0.00 | 99 | 1017.1 |
| 20260508072615 | 8 | 256 | 0.0 | 1.6 | 0.00 | 0.00 | 0.00 | 99 | 1016.9 |
| 20260508072112 | 8 | 253 | 0.0 | 0.0 | 0.00 | 0.00 | 0.00 | 99 | 1017.2 |
| 20260508071610 | 8 | 250 | 0.0 | 0.0 | 0.00 | 0.00 | 0.00 | 99 | 1017.0 |
| 20260508071108 | 8 | 251 | 0.0 | 0.0 | 0.00 | 0.00 | 0.00 | 99 | 1017.2 |
| 20260508070606 | 8 | 251 | 0.0 | 0.0 | 0.00 | 0.00 | 0.00 | 99 | 1017.1 |
| 20260508070104 | 8 | 250 | 0.0 | 0.0 | 0.00 | 0.00 | 0.00 | 99 | 1017.0 |
| 20260508065601 | 8 | 260 | 0.0 | 0.0 | 0.00 | 0.00 | 0.00 | 99 | 1016.9 |
| 20260508065058 | 8 | 266 | 0.0 | 0.0 | 0.00 | 0.00 | 0.00 | 99 | 1016.9 |
| 20260508064556 | 8 | 273 | 0.0 | 0.0 | 0.00 | 0.00 | 0.00 | 99 | 1016.9 |
| 20260508064054 | 8 | 262 | 0.0 | 0.0 | 0.00 | 0.00 | 0.00 | 99 | 1016.9 |
| 20260508063551 | 8 | 245 | 0.0 | 0.0 | 0.00 | 0.00 | 0.00 | 99 | 1016.7 |
| 20260508063049 | 8 | 246 | 0.0 | 0.0 | 0.00 | 0.00 | 0.00 | 99 | 1016.9 |
| 20260508062546 | 8 | 245 | 0.0 | 0.0 | 0.00 | 0.00 | 0.00 | 99 | 1016.8 |
| 20260508062042 | 8 | 243 | 0.0 | 0.0 | 0.00 | 0.00 | 0.00 | 99 | 1016.8 |
| 20260508061541 | 8 | 239 | 0.0 | 0.0 | 0.00 | 0.00 | 0.00 | 98 | 1016.8 |
| 20260508061037 | 9 | 245 | 0.0 | 0.0 | 0.00 | 0.00 | 0.00 | 97 | 1016.7 |
| 20260508060534 | 9 | 244 | 0.0 | 0.0 | 0.00 | 0.00 | 0.00 | 97 | 1016.7 |
| 20260508060032 | 10 | 253 | 0.0 | 0.0 | 0.00 | 0.00 | 0.00 | 96 | 1016.6 |
| 20260508055527 | 10 | 257 | 0.0 | 0.0 | 0.00 | 0.00 | 0.00 | 96 | 1016.9 |
| 20260508055024 | 10 | 274 | 0.0 | 0.0 | 0.00 | 0.00 | 0.00 | 96 | 1016.8 |
| 20260508054520 | 9 | 285 | 0.0 | 0.0 | 0.00 | 0.00 | 0.00 | 95 | 1016.8 |
| 20260508054018 | 9 | 264 | 0.0 | 0.0 | 0.00 | 0.00 | 0.00 | 96 | 1016.8 |
| 20260508053514 | 9 | 245 | 0.0 | 0.0 | 0.00 | 0.00 | 0.00 | 97 | 1016.4 |
| 20260508053013 | 10 | 246 | 0.0 | 0.0 | 0.00 | 0.00 | 0.00 | 97 | 1016.6 |
| 20260508052510 | 9 | 255 | 0.0 | 0.0 | 0.00 | 0.00 | 0.00 | 97 | 1016.6 |
| 20260508052006 | 10 | 254 | 0.0 | 0.0 | 0.00 | 0.00 | 0.00 | 97 | 1016.5 |
| 20260508051503 | 10 | 244 | 0.0 | 0.0 | 0.00 | 0.00 | 0.00 | 97 | 1016.5 |
| 20260508050957 | 10 | 245 | 0.0 | 0.0 | 0.00 | 0.00 | 0.00 | 96 | 1016.7 |
| 20260508050455 | 10 | 247 | 0.0 | 0.0 | 0.00 | 0.00 | 0.00 | 96 | 1016.6 |
| 20260508045951 | 10 | 248 | 0.0 | 0.0 | 0.00 | 0.00 | 0.00 | 96 | 1016.5 |
| 20260508045448 | 10 | 250 | 0.0 | 0.0 | 0.00 | 0.00 | 0.00 | 96 | 1016.5 |
| 20260508044946 | 10 | 250 | 0.0 | 0.0 | 0.00 | 0.00 | 0.00 | 95 | 1016.2 |
| 20260508044443 | 10 | 254 | 0.0 | 0.0 | 0.00 | 0.00 | 0.00 | 95 | 1016.4 |
| 20260508043938 | 10 | 263 | 0.0 | 0.0 | 0.00 | 0.00 | 0.00 | 96 | 1016.4 |
| 20260508043436 | 10 | 247 | 0.0 | 0.0 | 0.00 | 0.00 | 0.00 | 96 | 1016.5 |
| 20260508042932 | 10 | 243 | 0.0 | 0.0 | 0.00 | 0.00 | 0.00 | 95 | 1016.4 |
| 20260508042430 | 10 | 247 | 0.0 | 0.0 | 0.00 | 0.00 | 0.00 | 95 | 1016.1 |
| 20260508041926 | 10 | 251 | 0.0 | 0.0 | 0.00 | 0.00 | 0.00 | 94 | 1016.4 |
| 20260508041423 | 10 | 246 | 0.0 | 0.0 | 0.00 | 0.00 | 0.00 | 93 | 1016.2 |
| 20260508040920 | 10 | 243 | 0.0 | 0.0 | 0.00 | 0.00 | 0.00 | 93 | 1016.3 |
| 20260508040417 | 10 | 244 | 0.0 | 0.0 | 0.00 | 0.00 | 0.00 | 92 | 1016.1 |
| 20260508035915 | 10 | 270 | 0.0 | 0.0 | 0.00 | 0.81 | 0.81 | 91 | 1016.2 |
| 20260508035411 | 10 | 253 | 0.0 | 0.0 | 0.00 | 0.81 | 0.81 | 92 | 1016.2 |
| 20260508034908 | 10 | 262 | 0.0 | 0.0 | 0.00 | 0.81 | 0.81 | 92 | 1016.2 |
| 20260508034406 | 10 | 251 | 0.0 | 0.0 | 0.00 | 0.81 | 0.81 | 94 | 1016.2 |
| 20260508033902 | 10 | 260 | 0.0 | 0.0 | 0.00 | 0.81 | 0.81 | 94 | 1016.2 |
| 20260508033400 | 10 | 250 | 0.0 | 0.0 | 0.00 | 0.81 | 0.81 | 93 | 1016.1 |
| 20260508032858 | 10 | 254 | 0.0 | 0.0 | 0.00 | 0.81 | 0.81 | 93 | 1016.1 |
| 20260508032355 | 11 | 247 | 0.0 | 0.0 | 0.00 | 0.81 | 0.81 | 93 | 1016.0 |
| 20260508031851 | 11 | 250 | 0.0 | 0.0 | 0.00 | 0.81 | 0.81 | 92 | 1016.4 |
| 20260508031349 | 11 | 247 | 0.0 | 0.0 | 0.00 | 0.81 | 0.81 | 90 | 1016.1 |
| 20260508030844 | 11 | 235 | 0.0 | 0.0 | 0.00 | 0.81 | 0.81 | 88 | 1015.9 |
| 20260508030342 | 11 | 238 | 0.0 | 0.0 | 0.00 | 0.81 | 0.81 | 87 | 1016.0 |
| 20260508025838 | 11 | 251 | 0.0 | 0.0 | 0.00 | 0.81 | 0.81 | 86 | 1016.2 |
| 20260508025335 | 11 | 260 | 0.0 | 0.0 | 0.00 | 0.81 | 0.81 | 86 | 1016.0 |
| 20260508024832 | 11 | 258 | 0.0 | 0.0 | 0.00 | 0.81 | 0.81 | 85 | 1015.9 |
| 20260508024329 | 11 | 266 | 0.0 | 0.0 | 0.00 | 0.81 | 0.81 | 85 | 1015.7 |
| 20260508023826 | 12 | 247 | 0.0 | 0.0 | 0.00 | 0.81 | 0.81 | 85 | 1015.8 |
| 20260508023322 | 12 | 247 | 0.0 | 0.0 | 0.00 | 0.81 | 0.81 | 84 | 1015.7 |
| 20260508022819 | 12 | 247 | 0.0 | 0.0 | 0.00 | 0.81 | 0.81 | 84 | 1015.5 |
| 20260508022315 | 12 | 263 | 0.0 | 0.0 | 0.00 | 0.81 | 0.81 | 81 | 1015.6 |
| 20260508021812 | 12 | 249 | 0.0 | 0.0 | 0.00 | 0.81 | 0.81 | 83 | 1015.8 |
| 20260508021308 | 12 | 248 | 0.0 | 0.0 | 0.00 | 0.81 | 0.81 | 82 | 1015.7 |
| 20260508020804 | 13 | 233 | 0.0 | 0.0 | 0.00 | 0.81 | 0.81 | 81 | 1015.6 |
| 20260508020302 | 13 | 239 | 0.0 | 0.0 | 0.00 | 0.81 | 0.81 | 77 | 1015.4 |
| 20260508015759 | 13 | 233 | 0.0 | 0.0 | 0.00 | 0.81 | 0.81 | 77 | 1015.2 |
| 20260508015256 | 13 | 243 | 0.0 | 0.0 | 0.00 | 0.81 | 0.81 | 77 | 1015.2 |
| 20260508014753 | 13 | 245 | 0.0 | 0.0 | 0.00 | 0.81 | 0.81 | 79 | 1015.1 |
| 20260508014250 | 13 | 247 | 0.0 | 1.6 | 0.00 | 0.81 | 0.81 | 78 | 1015.0 |
| 20260508013745 | 14 | 251 | 0.0 | 1.6 | 0.00 | 0.81 | 0.81 | 74 | 1014.6 |
| 20260508013242 | 14 | 248 | 1.6 | 1.6 | 0.00 | 0.81 | 0.81 | 74 | 1014.6 |
| 20260508012740 | 14 | 244 | 1.6 | 1.6 | 0.00 | 0.81 | 0.81 | 74 | 1014.6 |
| 20260508012237 | 14 | 253 | 1.6 | 1.6 | 0.00 | 0.81 | 0.81 | 75 | 1014.4 |
| 20260508011735 | 14 | 251 | 0.0 | 1.6 | 0.00 | 0.81 | 0.81 | 74 | 1014.3 |
| 20260508011232 | 14 | 278 | 3.2 | 3.2 | 0.00 | 0.81 | 0.81 | 76 | 1014.5 |
| 20260508010728 | 14 | 305 | 0.0 | 0.0 | 0.00 | 0.81 | 0.81 | 79 | 1014.4 |
| 20260508010227 | 14 | 252 | 0.0 | 1.6 | 0.00 | 0.81 | 0.81 | 73 | 1014.1 |
| 20260508005723 | 14 | 245 | 0.0 | 0.0 | 0.00 | 0.81 | 0.81 | 75 | 1014.0 |
| 20260508005220 | 14 | 246 | 0.0 | 1.6 | 0.00 | 0.81 | 0.81 | 72 | 1014.1 |
| 20260508004716 | 15 | 238 | 0.0 | 1.6 | 0.00 | 0.81 | 0.81 | 75 | 1014.1 |
| 20260508004212 | 15 | 252 | 0.0 | 1.6 | 0.00 | 0.81 | 0.81 | 74 | 1013.7 |
| 20260508003709 | 15 | 21 | 9.7 | 17.7 | 0.00 | 0.81 | 0.81 | 71 | 1013.9 |
| 20260508003207 | 15 | 58 | 3.2 | 3.2 | 0.00 | 0.81 | 0.81 | 74 | 1013.9 |
| 20260508002703 | 15 | 256 | 1.6 | 3.2 | 0.00 | 0.81 | 0.81 | 73 | 1013.6 |
| 20260508002201 | 15 | 245 | 1.6 | 3.2 | 0.00 | 0.81 | 0.81 | 73 | 1013.6 |
| 20260508001656 | 16 | 303 | 3.2 | 3.2 | 0.00 | 0.81 | 0.81 | 72 | 1013.3 |
| 20260508001152 | 16 | 213 | 4.8 | 4.8 | 0.00 | 0.81 | 0.81 | 73 | 1013.3 |
| 20260508000648 | 16 | 198 | 3.2 | 4.8 | 0.00 | 0.81 | 0.81 | 77 | 1013.2 |
| 20260508000145 | 16 | 242 | 1.6 | 3.2 | 0.00 | 0.81 | 0.81 | 73 | 1013.2 |
| 20260507235642 | 16 | 304 | 3.2 | 4.8 | 0.00 | 0.81 | 0.81 | 75 | 1013.4 |
| 20260507235139 | 16 | 215 | 1.6 | 3.2 | 0.00 | 0.81 | 0.81 | 74 | 1013.1 |
| 20260507234636 | 17 | 236 | 0.0 | 1.6 | 0.00 | 0.81 | 0.81 | 76 | 1013.3 |
| 20260507234132 | 17 | 240 | 0.0 | 0.0 | 0.00 | 0.81 | 0.81 | 76 | 1013.0 |
| 20260507233629 | 17 | 314 | 1.6 | 1.6 | 0.00 | 0.81 | 0.81 | 76 | 1012.9 |
| 20260507233128 | 17 | 308 | 0.0 | 1.6 | 0.00 | 0.81 | 0.81 | 82 | 1012.9 |
| 20260507232625 | 17 | 251 | 1.6 | 1.6 | 0.00 | 0.81 | 0.81 | 84 | 1013.1 |
| 20260507232121 | 17 | 252 | 0.0 | 0.0 | 0.00 | 0.81 | 0.81 | 93 | 1013.1 |
| 20260507231617 | 17 | 244 | 1.6 | 1.6 | 0.00 | 0.81 | 0.81 | 93 | 1012.8 |
| 20260507231115 | 17 | 292 | 1.6 | 1.6 | 0.00 | 0.81 | 0.81 | 94 | 1012.7 |
| 20260507230611 | 17 | 260 | 0.0 | 0.0 | 0.00 | 0.81 | 0.81 | 93 | 1012.7 |
| 20260507230108 | 17 | 33 | 6.4 | 8.0 | 0.00 | 0.81 | 0.81 | 92 | 1012.3 |
| 20260507225603 | 17 | 20 | 1.6 | 3.2 | 0.00 | 0.81 | 0.81 | 92 | 1012.5 |
| 20260507225100 | 17 | 265 | 0.0 | 1.6 | 0.00 | 0.81 | 0.81 | 92 | 1012.4 |
| 20260507224555 | 17 | 246 | 0.0 | 1.6 | 0.00 | 0.81 | 0.81 | 92 | 1012.1 |
| 20260507224052 | 17 | 357 | 1.6 | 1.6 | 0.00 | 0.81 | 0.81 | 91 | 1012.1 |
| 20260507223548 | 17 | 240 | 1.6 | 1.6 | 0.00 | 0.81 | 0.81 | 91 | 1011.9 |
| 20260507223045 | 17 | 332 | 3.2 | 3.2 | 0.00 | 0.81 | 0.81 | 91 | 1011.6 |
| 20260507222542 | 17 | 311 | 3.2 | 3.2 | 0.00 | 0.81 | 0.81 | 91 | 1011.4 |
| 20260507222039 | 17 | 290 | 1.6 | 1.6 | 0.00 | 0.81 | 0.81 | 92 | 1011.6 |
| 20260507221535 | 17 | 304 | 1.6 | 1.6 | 0.00 | 0.81 | 0.81 | 92 | 1011.5 |
| 20260507221032 | 17 | 20 | 4.8 | 8.0 | 0.00 | 0.81 | 0.81 | 92 | 1011.6 |
| 20260507220529 | 17 | 23 | 4.8 | 4.8 | 0.00 | 0.81 | 0.81 | 92 | 1011.3 |
| 20260507220027 | 18 | 2 | 4.8 | 8.0 | 0.00 | 0.81 | 0.81 | 91 | 1011.4 |
| 20260507215523 | 18 | 40 | 3.2 | 3.2 | 0.00 | 0.81 | 0.81 | 91 | 1011.2 |
| 20260507215021 | 18 | 266 | 1.6 | 3.2 | 0.00 | 0.81 | 0.81 | 91 | 1011.3 |
| 20260507214518 | 18 | 348 | 3.2 | 3.2 | 0.00 | 0.81 | 0.81 | 91 | 1011.2 |
| 20260507214014 | 18 | 30 | 1.6 | 8.0 | 0.00 | 0.81 | 0.81 | 91 | 1011.0 |
| 20260507213510 | 18 | 308 | 4.8 | 4.8 | 0.00 | 0.81 | 0.81 | 90 | 1011.2 |
| 20260507213007 | 18 | 309 | 8.0 | 11.3 | 0.00 | 0.81 | 0.81 | 89 | 1010.7 |
| 20260507212503 | 18 | 286 | 1.6 | 1.6 | 0.00 | 0.81 | 0.81 | 89 | 1010.6 |
| 20260507212000 | 18 | 40 | 8.0 | 11.3 | 0.00 | 0.81 | 0.81 | 89 | 1010.3 |
| 20260507211456 | 18 | 7 | 9.7 | 12.9 | 0.00 | 0.81 | 0.81 | 90 | 1010.3 |
| 20260507210953 | 18 | 31 | 9.7 | 12.9 | 0.00 | 0.81 | 0.81 | 89 | 1010.5 |
| 20260507210450 | 18 | 249 | 1.6 | 3.2 | 0.00 | 0.81 | 0.81 | 89 | 1010.4 |
| 20260507205947 | 19 | 330 | 1.6 | 1.6 | 0.00 | 0.81 | 0.81 | 89 | 1010.4 |
| 20260507205444 | 19 | 17 | 1.6 | 3.2 | 0.00 | 0.81 | 0.81 | 88 | 1010.2 |
| 20260507204939 | 20 | 355 | 3.2 | 3.2 | 0.00 | 0.81 | 0.81 | 87 | 1010.3 |
| 20260507204430 | 21 | 19 | 1.6 | 3.2 | 0.00 | 0.81 | 0.81 | 85 | 1010.0 |
| 20260507203928 | 23 | 330 | 1.6 | 3.2 | 0.00 | 0.81 | 0.81 | 82 | 1009.5 |
| 20260507203420 | 23 | 249 | 0.0 | 1.6 | 0.00 | 0.81 | 0.81 | 83 | 1009.4 |
| 20260507202916 | 23 | 294 | 0.0 | 1.6 | 0.00 | 0.81 | 0.81 | 85 | 1009.6 |
| 20260507202413 | 22 | 240 | 0.0 | 1.6 | 0.00 | 0.81 | 0.81 | 85 | 1009.5 |
| 20260507201908 | 22 | 174 | 1.6 | 3.2 | 0.00 | 0.81 | 0.81 | 84 | 1009.6 |
| 20260507201404 | 22 | 244 | 0.0 | 1.6 | 0.00 | 0.81 | 0.81 | 85 | 1009.6 |
| 20260507200901 | 22 | 174 | 4.8 | 4.8 | 0.00 | 0.81 | 0.81 | 84 | 1009.6 |
| 20260507200357 | 22 | 179 | 3.2 | 3.2 | 0.00 | 0.81 | 0.81 | 87 | 1009.6 |
| 20260507195853 | 21 | 183 | 4.8 | 4.8 | 0.00 | 0.81 | 0.81 | 84 | 1009.6 |
| 20260507195350 | 21 | 241 | 0.0 | 0.0 | 0.00 | 0.81 | 0.81 | 86 | 1009.5 |
| 20260507194848 | 21 | 240 | 0.0 | 0.0 | 0.00 | 0.81 | 0.81 | 88 | 1009.5 |
| 20260507194344 | 21 | 232 | 3.2 | 3.2 | 0.00 | 0.81 | 0.81 | 87 | 1009.7 |
| 20260507193840 | 21 | 224 | 1.6 | 1.6 | 0.00 | 0.81 | 0.81 | 91 | 1009.8 |
| 20260507193338 | 21 | 208 | 1.6 | 3.2 | 0.00 | 0.81 | 0.81 | 92 | 1010.0 |
| 20260507192833 | 20 | 188 | 3.2 | 3.2 | 0.00 | 0.81 | 0.81 | 90 | 1009.9 |
| 20260507192330 | 20 | 188 | 8.0 | 14.5 | 0.00 | 0.81 | 0.81 | 91 | 1010.0 |
| 20260507191827 | 21 | 214 | 3.2 | 3.2 | 0.00 | 0.81 | 0.81 | 94 | 1010.1 |
| 20260507191323 | 20 | 221 | 1.6 | 1.6 | 0.00 | 0.81 | 0.81 | 98 | 1010.1 |
| 20260507190820 | 20 | 233 | 0.0 | 1.6 | 0.00 | 0.81 | 0.81 | 96 | 1009.8 |
| 20260507190318 | 20 | 235 | 1.6 | 1.6 | 0.13 | 0.81 | 0.81 | 95 | 1009.9 |
| 20260507185817 | 20 | 194 | 3.2 | 3.2 | 0.30 | 0.81 | 0.81 | 93 | 1010.1 |
| 20260507185313 | 20 | 218 | 1.6 | 1.6 | 0.30 | 0.79 | 0.79 | 94 | 1010.1 |
| 20260507184811 | 21 | 241 | 0.0 | 0.0 | 0.30 | 0.79 | 0.79 | 90 | 1010.3 |
| 20260507184309 | 22 | 259 | 0.0 | 0.0 | 0.00 | 0.74 | 0.74 | 81 | 1009.9 |
| 20260507183805 | 22 | 242 | 0.0 | 0.0 | 0.00 | 0.74 | 0.74 | 82 | 1009.8 |
| 20260507183302 | 22 | 244 | 0.0 | 0.0 | 0.00 | 0.74 | 0.74 | 79 | 1010.0 |
| 20260507182759 | 22 | 229 | 0.0 | 1.6 | 0.00 | 0.74 | 0.74 | 81 | 1010.3 |
| 20260507182254 | 22 | 190 | 1.6 | 3.2 | 0.00 | 0.74 | 0.74 | 82 | 1010.4 |
| 20260507181751 | 23 | 155 | 3.2 | 8.0 | 0.00 | 0.74 | 0.74 | 80 | 1010.3 |
| 20260507181247 | 22 | 250 | 1.6 | 3.2 | 0.00 | 0.74 | 0.74 | 83 | 1010.3 |
| 20260507180744 | 22 | 208 | 1.6 | 3.2 | 0.00 | 0.74 | 0.74 | 83 | 1010.4 |
| 20260507180241 | 23 | 212 | 1.6 | 1.6 | 0.00 | 0.74 | 0.74 | 82 | 1010.1 |
| 20260507175736 | 23 | 229 | 1.6 | 1.6 | 0.00 | 0.74 | 0.74 | 83 | 1010.3 |
| 20260507175233 | 22 | 251 | 1.6 | 1.6 | 0.00 | 0.74 | 0.74 | 83 | 1010.3 |
| 20260507174731 | 23 | 224 | 1.6 | 3.2 | 0.00 | 0.74 | 0.74 | 80 | 1010.3 |
| 20260507174229 | 22 | 205 | 3.2 | 3.2 | 0.00 | 0.74 | 0.74 | 81 | 1010.4 |
| 20260507173727 | 22 | 144 | 4.8 | 8.0 | 0.00 | 0.74 | 0.74 | 80 | 1010.5 |
| 20260507173223 | 22 | 180 | 4.8 | 4.8 | 0.00 | 0.74 | 0.74 | 82 | 1010.5 |
| 20260507172719 | 22 | 236 | 1.6 | 1.6 | 0.00 | 0.74 | 0.74 | 85 | 1010.7 |
| 20260507172211 | 22 | 229 | 4.8 | 4.8 | 0.00 | 0.74 | 0.74 | 83 | 1010.5 |
| 20260507171711 | 21 | 211 | 3.2 | 3.2 | 0.00 | 0.74 | 0.74 | 87 | 1010.7 |
| 20260507171209 | 22 | 197 | 6.4 | 8.0 | 0.00 | 0.74 | 0.74 | 84 | 1010.6 |
| 20260507170705 | 22 | 226 | 4.8 | 4.8 | 0.00 | 0.74 | 0.74 | 85 | 1010.7 |
| 20260507170203 | 21 | 230 | 1.6 | 1.6 | 0.00 | 0.74 | 0.74 | 89 | 1010.8 |
| 20260507165658 | 21 | 155 | 6.4 | 9.7 | 0.00 | 0.74 | 0.74 | 92 | 1011.0 |